Home > Time Zones > World Clock > Weather > Japan > Naha > Past weeks

Flag for Japan Weather past 2 weeks in Naha, Okinawa, Japan

Now
84 °F

Passing clouds.


Feels Like: 91 °F
Forecast: 84 / 89 °F
Wind: 8 mph from East

Location: Naha Airport

Current Time: Aug 4, 2015 at 9:28:54 PM

Latest Report: Aug 4, 2015 at 9:00 PM


Visibility: N/A

Pressure: 29.77 "Hg

Humidity: 70%

Dew point: 73 °F

Location of NahaLocation

Historic Weather in Naha — Graph

°F

Naha temperature yesterday

Maximum temperature yesterday: 88 °F (at 5:00 PM)
Minimum temperature yesterday: 81 °F (at 5:00 AM)
Average temperature yesterday: 84 °F

Past Weeks' High & Low Weather Summary

 TemperatureHumidityPressure
High90 °F (Jul 29, 1:30 PM)94% (Jul 20, 8:30 PM)29.95 "Hg (Jul 20, 8:30 PM)
Low77 °F (Jul 20, 8:30 PM)55% (Jul 23, 11:30 AM)29.65 "Hg (Jul 25, 9:00 AM)
Average84 °F78%29.86 "Hg
* Reported Jul 20 8:00 PM — Aug 4 8:30 PM, Naha, Weather by CustomWeather, © 2015

Note: Actual official high and low records may vary slightly from our data, if they occured in-between our weather recording intervals... More about our weather records

Advertising

Naha weather history for previous 24 hours

 ConditionsComfort  
Time TempWeatherWind HumidityBarometerVisibility
8:30 PM
Tue, Aug 4
84 °FPassing clouds.8 mph70%29.77 "HgN/A
8:00 PM84 °FPassing clouds.8 mph70%29.77 "HgN/A
7:30 PM84 °FPassing clouds.9 mph74%29.74 "HgN/A
7:00 PM86 °FPassing clouds.9 mph66%29.74 "HgN/A
6:30 PM86 °FPassing clouds.10 mph66%29.74 "HgN/A
6:00 PM86 °FPassing clouds.9 mph66%29.74 "HgN/A
5:30 PM86 °FPassing clouds.9 mph66%29.74 "HgN/A
5:00 PM88 °FScattered clouds.9 mph62%29.74 "HgN/A
4:30 PM88 °FPassing clouds.10 mph62%29.74 "HgN/A
4:00 PM90 °FPassing clouds.10 mph59%29.74 "HgN/A
3:30 PM90 °FPassing clouds.9 mph55%29.74 "HgN/A
3:00 PM90 °FPassing clouds.10 mph55%29.74 "HgN/A
2:30 PM88 °FPassing clouds.9 mph59%29.77 "HgN/A
2:00 PM90 °FPassing clouds.9 mph55%29.77 "HgN/A
1:30 PM90 °FPassing clouds.9 mph55%29.77 "HgN/A
1:00 PM88 °FPassing clouds.9 mph70%29.77 "HgN/A
12:30 PM84 °FScattered clouds.12 mph74%29.80 "HgN/A
12:00 PM84 °FScattered clouds.10 mph74%29.80 "HgN/A
11:30 AM84 °FScattered clouds.12 mph74%29.80 "HgN/A
11:00 AM86 °FPassing clouds.10 mph75%29.80 "HgN/A
10:30 AM84 °FPassing clouds.10 mph74%29.80 "HgN/A
10:00 AM86 °FPassing clouds.12 mph75%29.80 "HgN/A
9:30 AM86 °FPassing clouds.5 mph75%29.80 "HgN/A
9:00 AM86 °FPassing clouds.3 mph66%29.80 "HgN/A
8:30 AM86 °FPassing clouds.5 mph66%29.80 "HgN/A
8:00 AM84 °FPassing clouds.5 mph74%29.80 "HgN/A
7:30 AM82 °FPassing clouds.5 mph79%29.80 "HgN/A
6:30 AM81 °FPassing clouds.1 mph84%29.80 "HgN/A
5:30 AM81 °FPassing clouds.2 mph79%29.80 "HgN/A
5:00 AM81 °FPassing clouds.2 mph79%29.80 "HgN/A
4:30 AM81 °FPassing clouds.2 mph79%29.80 "HgN/A
4:00 AM82 °FPassing clouds.2 mph74%29.80 "HgN/A
3:30 AM81 °FPassing clouds.2 mph79%29.80 "HgN/A
3:00 AM81 °FPassing clouds.3 mph79%29.80 "HgN/A
2:30 AM82 °FPassing clouds.5 mph74%29.83 "HgN/A
2:00 AM82 °FPassing clouds.5 mph74%29.83 "HgN/A
1:30 AM82 °FPassing clouds.6 mph74%29.83 "HgN/A
1:00 AM82 °FPassing clouds.7 mph74%29.83 "HgN/A
12:30 AM82 °FPassing clouds.5 mph79%29.83 "HgN/A
12:00 AM82 °FPassing clouds.5 mph79%29.83 "HgN/A
11:30 PM
Mon, Aug 3
82 °FPassing clouds.3 mph79%29.86 "HgN/A
11:00 PM82 °FPassing clouds.5 mph74%29.86 "HgN/A
10:30 PM82 °FPassing clouds.5 mph74%29.86 "HgN/A
10:00 PM82 °FPassing clouds.5 mph74%29.86 "HgN/A
9:30 PM82 °FPassing clouds.3 mph74%29.83 "HgN/A
9:00 PM82 °FPassing clouds.5 mph74%29.83 "HgN/A
Weather by CustomWeather, © 2015

See weather overviewHow to use our weather pages